Wind_Speed
62 65 62 63 60 60 60 61 60 61 64 69 68 66 67 60 54 54 57 61 62 63 66 65 67 69 72 74 77 79 81 83 85 89 90 93 95 97
64 62 61 61 67 67 70 75 77 72 67 70 61 58 53 50 54 59 59 61 59 62 65 66 68 71 73 75 78 80 81 84 87 89 91 92 94 95
43 42 46 51 58 66 69 75 73 69 69 61 50 47 50 54 57 57 56 58 61 64 66 68 70 71 74 77 79 81 83 85 85 88 89 91 91 85
51 37 39 50 60 56 57 58 56 54 50 49 48 50 54 58 54 53 57 59 62 66 68 69 71 73 76 78 79 81 82 81 85 87 87 84 80 68
38 39 41 42 42 41 38 38 38 39 42 47 51 51 50 50 52 55 58 62 64 67 68 70 72 74 76 79 79 81 80 83 85 85 83 75 63 55
24 28 33 32 28 28 28 32 35 40 45 45 47 47 45 49 52 56 60 62 64 65 69 72 74 76 77 76 78 80 82 83 83 78 69 59 53 51
27 22 22 24 26 30 33 35 37 40 43 42 40 45 48 50 52 55 57 60 62 65 69 73 74 75 75 77 80 81 79 76 72 64 54 50 48 47
27 26 26 25 25 28 31 35 39 34 35 39 43 46 48 49 53 55 58 60 64 66 66 69 70 74 76 79 80 77 71 65 57 51 48 47 48 48
28 24 26 30 33 34 35 30 31 35 38 39 41 46 49 50 52 57 60 63 66 67 65 67 70 75 78 77 73 68 60 53 48 47 47 48 49 48
24 23 27 29 32 30 29 31 33 35 37 39 42 44 48 51 55 60 62 64 65 67 66 67 72 73 71 69 63 57 51 47 45 46 48 49 46 43
22 27 30 29 28 28 29 30 32 35 37 40 45 49 53 57 61 62 63 63 63 67 70 71 71 68 60 53 50 48 47 46 46 44 46 45 40 40
24 24 22 23 25 27 29 30 32 36 40 46 51 54 59 61 63 63 61 62 65 68 72 69 63 58 47 39 41 43 44 45 44 44 43 40 37 38
23 22 21 23 25 28 29 32 36 40 45 50 54 57 59 61 61 61 63 66 69 71 68 62 52 47 42 38 38 41 41 42 41 40 39 37 36 36
19 19 22 24 26 27 32 37 42 46 50 53 57 58 60 61 60 62 66 70 71 65 56 51 47 42 39 36 38 40 40 40 38 36 36 33 35 34
19 22 24 26 28 33 38 41 45 48 53 59 61 59 59 59 62 66 70 68 62 56 50 47 43 39 38 39 35 35 34 34 35 33 33 32 30 33
22 24 25 29 34 38 41 45 49 53 57 57 56 57 59 62 65 68 67 58 51 50 48 42 39 37 37 36 34 36 36 32 29 29 30 29 30 33
22 25 29 34 38 42 45 47 51 53 55 56 57 59 61 65 68 67 59 52 48 43 39 38 38 38 36 34 33 34 33 31 28 26 26 27 29 31
25 29 34 38 41 43 46 50 53 55 56 57 59 61 64 68 66 59 52 47 42 40 34 33 33 33 36 39 34 31 32 30 27 25 23 24 28 29
30 34 38 41 44 47 50 53 54 55 55 57 60 63 67 67 59 51 46 41 38 33 31 31 31 30 30 31 33 29 28 28 25 24 21 22 25 24
36 40 43 44 47 50 52 52 53 54 56 59 63 66 65 60 53 46 41 37 32 29 30 30 29 29 29 28 27 26 23 24 23 22 21 20 22 21
40 42 44 46 49 52 52 52 53 56 58 61 65 65 61 54 46 40 38 31 25 27 28 27 27 27 28 28 29 28 25 21 20 19 19 18 18 18
41 43 46 49 51 51 51 53 55 58 61 64 64 61 55 47 40 37 30 26 24 26 26 25 25 25 25 25 26 24 22 22 17 17 16 15 16 15
42 45 49 50 50 50 52 55 57 60 63 65 62 55 47 40 38 30 25 20 22 23 23 24 25 24 24 22 20 21 20 19 18 16 14 13 14 13
Wind_Direction
247 243 243 248 253 259 261 262 265 269 272 275 276 285 285 284 279 280 287 292 290 290 293 294 295 296 296 297 298 299 299 299 299 299 299 299 299 299
256 253 253 260 259 261 262 263 265 271 274 280 285 284 281 277 279 287 291 290 291 294 294 295 296 297 299 299 300 301 301 301 302 302 301 301 302 300
262 269 276 274 274 274 275 275 272 277 282 286 278 279 280 284 288 289 292 296 296 296 296 298 298 300 301 302 302 302 303 302 302 302 303 302 299 296
263 271 274 275 274 275 275 273 272 280 278 273 277 281 283 289 291 295 295 296 297 297 298 300 302 302 303 302 303 303 303 303 303 304 302 299 296 296
266 264 263 265 270 278 280 280 277 271 271 275 283 286 289 293 295 298 298 296 298 300 301 302 303 304 304 304 304 304 303 304 304 302 301 300 298 298
252 255 263 266 268 268 271 273 272 276 280 284 287 290 294 295 296 297 298 299 301 304 305 305 304 305 305 306 305 307 306 305 303 302 300 299 300 299
248 233 239 248 258 263 268 273 277 282 286 288 293 295 296 299 298 297 299 303 305 307 307 306 308 308 307 306 306 306 305 303 303 302 300 301 302 300
224 237 251 263 282 286 286 289 290 292 293 295 297 299 299 300 302 304 306 308 309 309 308 308 308 307 307 308 306 304 304 303 302 301 302 300 301 301
240 253 269 275 288 292 295 290 293 293 296 300 302 302 302 307 311 313 313 312 311 311 310 308 307 308 308 307 305 306 306 305 305 304 303 303 304 303
251 275 283 287 292 291 289 292 296 301 298 301 303 307 312 316 317 317 316 314 312 310 310 310 310 311 308 306 306 306 306 307 308 308 308 306 304 304
276 283 284 287 282 287 295 299 297 298 303 308 312 315 315 317 319 318 317 314 312 311 313 313 312 311 308 306 305 308 309 310 311 311 311 309 308 309
286 284 277 284 293 294 294 295 299 304 311 314 317 318 319 319 320 318 314 313 314 314 313 313 310 310 310 305 304 306 310 311 311 310 311 312 311 312
269 273 283 287 289 290 294 298 306 311 314 317 318 319 319 319 319 317 316 315 315 317 316 314 313 313 314 314 311 311 312 312 314 313 315 315 316 315
272 282 286 288 290 294 300 305 310 313 315 318 318 319 320 320 318 316 317 318 319 318 315 316 316 315 316 319 318 316 315 314 316 317 318 318 318 317
286 287 290 295 297 299 303 309 314 316 318 318 318 318 319 318 317 319 321 320 318 317 318 318 318 319 320 322 323 320 324 319 319 318 318 320 320 321
285 289 293 297 302 306 312 315 315 316 317 318 317 318 318 319 320 322 321 318 317 318 319 319 319 320 321 322 325 322 324 326 324 324 321 323 324 327
291 296 302 307 312 313 313 313 315 316 316 317 318 319 318 320 321 321 319 317 317 317 316 318 320 321 321 323 329 326 328 329 329 328 328 326 329 336
300 307 312 313 312 311 312 313 315 315 317 318 319 318 318 319 320 320 318 317 317 316 316 317 320 323 325 326 333 330 328 334 334 333 333 330 337 343
305 309 311 311 311 312 313 314 314 316 317 317 317 318 319 320 320 318 318 318 317 316 318 320 323 325 327 329 331 336 331 333 335 336 340 340 343 349
307 308 310 311 311 311 312 313 314 316 316 317 318 319 320 320 318 318 318 318 317 317 320 324 327 330 331 331 334 334 336 334 337 340 344 348 350 357
305 307 308 308 308 310 312 313 315 316 317 318 318 319 319 319 318 318 318 317 316 319 324 328 331 332 332 333 338 340 340 342 340 343 346 352 356 2
304 305 306 307 309 310 312 314 315 316 317 317 319 319 318 317 317 318 317 316 318 323 327 331 333 333 333 336 337 343 342 342 350 346 352 357 2 12
303 304 305 307 309 311 313 314 315 316 317 318 319 318 318 316 317 316 315 314 321 326 331 334 334 334 337 339 344 347 349 351 355 357 2 3 11 20
Height
5713 5714 5716 5718 5720 5722 5722 5719 5717 5715 5713 5710 5709 5708 5703 5698 5695 5691 5686 5681 5677 5672 5666 5657 5650 5642 5633 5624 5616 5607 5597 5588 5577 5567 5557 5545 5533 5520
5702 5706 5707 5708 5708 5709 5709 5706 5704 5703 5702 5700 5697 5694 5690 5686 5684 5680 5674 5668 5662 5656 5651 5642 5633 5625 5616 5606 5597 5586 5575 5565 5556 5544 5532 5520 5507 5493
5696 5697 5700 5701 5700 5699 5699 5697 5695 5694 5692 5689 5686 5681 5679 5676 5672 5667 5660 5655 5649 5642 5634 5625 5615 5605 5596 5586 5577 5567 5557 5545 5534 5522 5510 5494 5482 5472
5687 5687 5688 5689 5690 5688 5687 5685 5683 5681 5679 5678 5675 5672 5670 5665 5659 5653 5648 5641 5634 5626 5617 5607 5598 5588 5578 5567 5557 5546 5535 5525 5513 5500 5486 5473 5463 5453
5676 5676 5676 5679 5680 5679 5677 5676 5675 5673 5670 5668 5664 5661 5657 5652 5648 5642 5635 5628 5621 5610 5599 5590 5580 5570 5559 5549 5538 5527 5516 5504 5491 5476 5464 5454 5444 5437
5667 5669 5671 5672 5671 5671 5670 5669 5667 5665 5662 5658 5654 5650 5646 5642 5636 5631 5622 5614 5605 5595 5582 5574 5563 5552 5541 5531 5520 5507 5494 5480 5465 5454 5445 5437 5431 5424
5661 5663 5666 5666 5665 5663 5661 5659 5657 5654 5652 5648 5644 5641 5636 5629 5624 5617 5608 5597 5587 5579 5566 5555 5542 5530 5520 5510 5499 5487 5474 5459 5448 5439 5431 5424 5418 5412
5655 5657 5659 5658 5657 5655 5653 5650 5648 5644 5643 5638 5635 5631 5625 5617 5610 5602 5594 5584 5572 5566 5555 5538 5529 5514 5503 5492 5479 5467 5455 5443 5434 5426 5419 5413 5407 5400
5649 5650 5650 5650 5649 5647 5644 5641 5639 5636 5633 5628 5624 5620 5613 5605 5596 5587 5577 5567 5557 5547 5541 5528 5515 5501 5482 5468 5457 5446 5438 5430 5423 5415 5408 5402 5395 5389
5641 5641 5641 5641 5640 5638 5636 5633 5630 5627 5623 5619 5613 5607 5599 5591 5582 5573 5564 5553 5540 5528 5523 5516 5500 5486 5468 5447 5437 5431 5425 5419 5412 5405 5397 5390 5384 5377
5634 5634 5634 5633 5632 5631 5628 5625 5622 5619 5613 5607 5601 5592 5585 5576 5568 5557 5546 5538 5529 5515 5506 5494 5480 5473 5457 5439 5425 5419 5414 5408 5401 5394 5387 5379 5372 5366
5628 5628 5627 5626 5624 5623 5621 5617 5612 5609 5601 5595 5587 5579 5571 5561 5552 5543 5535 5525 5514 5505 5488 5480 5463 5452 5449 5435 5422 5413 5406 5398 5391 5385 5377 5370 5363 5357
5623 5623 5621 5620 5617 5616 5611 5608 5602 5596 5589 5582 5575 5566 5557 5547 5538 5528 5518 5509 5498 5483 5471 5460 5450 5439 5430 5424 5415 5405 5398 5391 5383 5375 5367 5360 5354 5347
5617 5616 5614 5612 5609 5605 5602 5597 5592 5585 5578 5570 5562 5552 5542 5534 5524 5514 5504 5490 5477 5468 5456 5446 5438 5428 5421 5415 5406 5399 5389 5382 5375 5367 5360 5354 5347 5340
5609 5608 5605 5601 5600 5598 5593 5588 5581 5573 5565 5556 5549 5540 5531 5522 5513 5500 5486 5473 5461 5453 5444 5435 5427 5419 5412 5405 5399 5392 5386 5376 5367 5361 5353 5348 5342 5335
5602 5600 5599 5597 5593 5588 5581 5574 5568 5561 5554 5546 5538 5529 5518 5508 5497 5486 5474 5463 5452 5441 5432 5425 5418 5412 5406 5398 5393 5385 5377 5370 5363 5356 5348 5343 5337 5330
5595 5593 5591 5587 5581 5575 5570 5565 5558 5551 5543 5534 5524 5515 5504 5494 5483 5473 5462 5452 5443 5436 5427 5418 5412 5405 5398 5393 5387 5378 5371 5364 5357 5351 5345 5339 5334 5327
5588 5585 5580 5576 5571 5566 5561 5554 5547 5538 5529 5520 5512 5502 5493 5483 5471 5459 5450 5441 5433 5426 5420 5415 5408 5400 5392 5383 5380 5373 5365 5359 5353 5347 5342 5337 5331 5325
5579 5576 5572 5567 5562 5556 5549 5542 5534 5525 5518 5510 5501 5491 5480 5469 5458 5449 5440 5432 5424 5419 5413 5408 5402 5396 5389 5381 5374 5369 5362 5356 5350 5345 5340 5335 5330 5326
5571 5567 5562 5557 5551 5545 5538 5531 5524 5516 5508 5498 5488 5477 5467 5457 5447 5439 5431 5425 5418 5413 5408 5402 5396 5390 5384 5379 5373 5366 5361 5354 5348 5343 5339 5334 5330 5326
5561 5557 5552 5547 5541 5535 5528 5521 5513 5504 5495 5485 5475 5465 5455 5446 5438 5431 5424 5418 5413 5408 5403 5398 5392 5386 5381 5374 5369 5362 5357 5352 5347 5343 5338 5334 5330 5327
5552 5547 5542 5537 5530 5523 5516 5509 5501 5492 5483 5473 5463 5453 5444 5437 5430 5423 5418 5413 5408 5404 5399 5394 5389 5384 5378 5373 5367 5362 5356 5351 5347 5342 5339 5335 5332 5329
5542 5537 5532 5525 5519 5512 5505 5497 5489 5480 5470 5460 5451 5443 5435 5429 5423 5417 5413 5409 5405 5400 5396 5391 5385 5380 5375 5371 5367 5361 5356 5351 5346 5342 5340 5336 5333 5331